TimeCDT,TemperatureF,Dew PointF,Humidity,Sea Level PressureIn,VisibilityMPH,Wind Direction,Wind SpeedMPH,Gust SpeedMPH,PrecipitationIn,Events,Conditions,WindDirDegrees,DateUTC
12:53 AM,81.0,77.0,88,29.95,10.0,SW,3.5,-,N/A,,Clear,230,2013-07-24 05:53:00
1:53 AM,80.1,75.9,87,29.93,10.0,WSW,3.5,-,N/A,,Clear,240,2013-07-24 06:53:00
2:53 AM,78.1,75.9,93,29.91,10.0,Calm,Calm,-,N/A,,Clear,0,2013-07-24 07:53:00
3:53 AM,79.0,75.9,90,29.94,10.0,West,4.6,-,N/A,,Clear,270,2013-07-24 08:53:00
4:53 AM,78.1,75.9,93,29.94,10.0,Variable,3.5,-,N/A,,Clear,0,2013-07-24 09:53:00
5:53 AM,78.1,75.9,93,29.96,9.0,WSW,5.8,-,N/A,,Clear,250,2013-07-24 10:53:00
6:53 AM,78.1,75.9,93,29.95,8.0,WSW,3.5,-,N/A,,Mostly Cloudy,240,2013-07-24 11:53:00
7:41 AM,80.6,77.0,89,29.96,9.0,Variable,4.6,-,N/A,,Mostly Cloudy,0,2013-07-24 12:41:00
7:53 AM,80.1,75.9,87,29.97,9.0,West,6.9,-,N/A,,Overcast,270,2013-07-24 12:53:00
8:23 AM,80.6,75.2,84,29.97,10.0,West,8.1,-,N/A,,Overcast,280,2013-07-24 13:23:00
8:40 AM,80.6,75.2,84,29.97,10.0,West,6.9,-,N/A,,Overcast,270,2013-07-24 13:40:00
8:53 AM,81.0,75.9,85,29.97,10.0,WNW,6.9,-,N/A,,Overcast,290,2013-07-24 13:53:00
9:53 AM,84.0,75.9,76,29.97,10.0,West,4.6,-,N/A,,Mostly Cloudy,280,2013-07-24 14:53:00
10:10 AM,82.4,75.2,79,29.97,10.0,WNW,5.8,-,N/A,,Mostly Cloudy,300,2013-07-24 15:10:00
10:53 AM,82.9,75.9,79,29.98,10.0,Variable,4.6,-,N/A,,Partly Cloudy,0,2013-07-24 15:53:00
11:53 AM,86.0,75.9,72,29.98,10.0,West,5.8,-,N/A,,Partly Cloudy,280,2013-07-24 16:53:00
12:53 PM,87.1,75.9,69,29.96,10.0,West,5.8,-,N/A,,Partly Cloudy,280,2013-07-24 17:53:00
1:53 PM,90.0,75.9,63,29.95,10.0,West,6.9,-,N/A,,Mostly Cloudy,280,2013-07-24 18:53:00
2:53 PM,91.0,73.0,55,29.91,10.0,Variable,6.9,-,N/A,,Partly Cloudy,0,2013-07-24 19:53:00
3:53 PM,91.0,73.0,55,29.89,10.0,West,5.8,-,N/A,,Clear,280,2013-07-24 20:53:00
4:53 PM,90.0,73.0,57,29.89,10.0,West,4.6,-,N/A,,Partly Cloudy,260,2013-07-24 21:53:00
5:53 PM,90.0,70.0,52,29.88,10.0,WNW,4.6,-,N/A,,Scattered Clouds,290,2013-07-24 22:53:00
6:53 PM,86.0,73.9,67,29.90,10.0,Calm,Calm,-,N/A,,Clear,0,2013-07-24 23:53:00
7:53 PM,84.0,75.9,76,29.90,10.0,Calm,Calm,-,N/A,,Clear,0,2013-07-25 00:53:00
8:53 PM,82.0,77.0,85,29.91,10.0,Calm,Calm,-,N/A,,Partly Cloudy,0,2013-07-25 01:53:00
9:53 PM,81.0,78.1,91,29.92,10.0,Calm,Calm,-,N/A,,Mostly Cloudy,0,2013-07-25 02:53:00
10:53 PM,79.0,73.9,84,29.93,10.0,NE,5.8,-,N/A,,Mostly Cloudy,40,2013-07-25 03:53:00
11:53 PM,77.0,73.9,90,29.92,10.0,Calm,Calm,-,N/A,,Mostly Cloudy,0,2013-07-25 04:53:00